York, NE

4:07 AM CDT on August 26, 2016 (GMT -0500)
York Municipal

Weather History for KJYR - March, 2014

Change the Weather History Date:

Sunday, March 2, 2014

  Actual Average Record
Temperature  
Mean Temperature -1 °F -  
Max Temperature 3 °F 48 °F 79 °F (1992)
Min Temperature -5 °F 24 °F -5 °F (2014)
Degree Days  
Heating Degree Days 66    
Moisture  
Dew Point -13 °F    
Average Humidity 57    
Maximum Humidity 71    
Minimum Humidity 46    
Precipitation  
Precipitation 0.00 in - - ()
Sea Level Pressure  
Sea Level Pressure 30.50 in    
Wind  
Wind Speed 18 mph (North)    
Max Wind Speed 23 mph    
Max Gust Speed 31 mph    
Visibility 10 miles    
Events      
Averages and records for this station are not official NWS values.
T = Trace of Precipitation, MM = Missing Value Source: NWS Daily Summary

Daily Weather History Graph

Daily Weather History Graph

Search for Another Location

Airport or City:

Trip Planner

Search our weather history database for the weather conditions in past years. The results will help you decide how hot, cold, wet, or windy it might be!

Date:

Astronomy

Mar. 02, 2014 Rise Set
Actual Time 7:02 AM CST 6:22 PM CST
Civil Twilight 6:35 AM CST 6:50 PM CST
Nautical Twilight 6:03 AM CST 7:22 PM CST
Astronomical Twilight 5:31 AM CST 7:54 PM CST
Moon 7:34 AM CST (3/2) 8:21 PM CST (3/2)
Length of Visible Light 12h 14m
Length of Day
11h 19m
Waxing Crescent, 3% of the Moon is Illuminated
Mar 2
Waxing Crescent
Mar 8
First Quarter
Mar 16
Full
Mar 23
Last Quarter
Mar 30
New

Hourly Weather History & Observations

Time (CST) Temp. Windchill Dew Point Humidity Pressure Visibility Wind Dir Wind Speed Gust Speed Precip Events Conditions
12:15 AM -0.4 °F -23.3 °F -9.4 °F 66% 30.46 in 10.0 mi North 21.9 mph - N/A   Overcast
12:35 AM -0.4 °F -22.3 °F -9.4 °F 66% 30.46 in 10.0 mi North 19.6 mph - N/A   Overcast
12:55 AM -0.4 °F -22.8 °F -9.4 °F 66% 30.46 in 10.0 mi NNE 20.7 mph - N/A   Overcast
1:15 AM -0.4 °F -22.3 °F -11.2 °F 60% 30.46 in 10.0 mi NNE 19.6 mph 25.3 mph N/A   Overcast
1:35 AM -0.4 °F -23.3 °F -9.4 °F 66% 30.47 in 10.0 mi North 21.9 mph 26.5 mph N/A   Overcast
1:55 AM -0.4 °F -22.8 °F -11.2 °F 60% 30.48 in 10.0 mi North 20.7 mph 25.3 mph N/A   Overcast
2:15 AM -0.4 °F -23.3 °F -11.2 °F 60% 30.48 in 10.0 mi North 21.9 mph - N/A   Overcast
2:35 AM -2.2 °F -25.2 °F -11.2 °F 66% 30.47 in 10.0 mi North 20.7 mph 27.6 mph N/A   Overcast
2:55 AM -2.2 °F -24.7 °F -11.2 °F 66% 30.46 in 10.0 mi North 19.6 mph 24.2 mph N/A   Overcast
3:15 AM -2.2 °F -24.1 °F -11.2 °F 66% 30.48 in 10.0 mi North 18.4 mph 23.0 mph N/A   Overcast
3:35 AM -2.2 °F -21.5 °F -11.2 °F 66% 30.48 in 10.0 mi North 13.8 mph 23.0 mph N/A   Overcast
3:55 AM -2.2 °F -25.7 °F -11.2 °F 66% 30.48 in 10.0 mi North 21.9 mph - N/A   Overcast
4:15 AM -2.2 °F -26.2 °F -13.0 °F 60% 30.48 in 10.0 mi North 23.0 mph 27.6 mph N/A   Overcast
4:35 AM -4.0 °F -27.6 °F -11.2 °F 71% 30.48 in 10.0 mi North 20.7 mph 26.5 mph N/A   Overcast
4:55 AM -4.0 °F -28.1 °F -13.0 °F 65% 30.50 in 10.0 mi North 21.9 mph 28.8 mph N/A   Overcast
5:15 AM -4.0 °F -28.6 °F -16.6 °F 55% 30.50 in 10.0 mi North 23.0 mph 31.1 mph N/A   Overcast
5:35 AM -5.8 °F -28.8 °F -16.6 °F 60% 30.50 in 10.0 mi North 18.4 mph 25.3 mph N/A   Mostly Cloudy
5:55 AM -5.8 °F -30.5 °F -16.6 °F 60% 30.49 in 10.0 mi North 21.9 mph 28.8 mph N/A   Mostly Cloudy
6:15 AM -5.8 °F -29.4 °F -16.6 °F 60% 30.50 in 10.0 mi North 19.6 mph - N/A   Mostly Cloudy
6:35 AM -5.8 °F -29.4 °F -16.6 °F 60% 30.51 in 10.0 mi North 19.6 mph 26.5 mph N/A   Scattered Clouds
6:55 AM -5.8 °F -28.2 °F -18.4 °F 55% 30.51 in 10.0 mi North 17.3 mph 23.0 mph N/A   Mostly Cloudy
7:15 AM -5.8 °F -29.9 °F -16.6 °F 60% 30.50 in 10.0 mi North 20.7 mph 26.5 mph N/A   Scattered Clouds
7:35 AM -5.8 °F -31.0 °F -18.4 °F 55% 30.51 in 10.0 mi North 23.0 mph 26.5 mph N/A   Partly Cloudy
7:55 AM -5.8 °F -28.8 °F -16.6 °F 60% 30.53 in 10.0 mi NNE 18.4 mph 21.9 mph N/A   Clear
8:15 AM -4.0 °F -23.0 °F -18.4 °F 50% 30.54 in 10.0 mi North 12.7 mph 21.9 mph N/A   Mostly Cloudy
8:35 AM -4.0 °F -25.2 °F -16.6 °F 55% 30.55 in 10.0 mi North 16.1 mph - N/A   Overcast
8:55 AM -4.0 °F -25.2 °F -18.4 °F 50% 30.56 in 10.0 mi North 16.1 mph 23.0 mph N/A   Overcast
9:15 AM -4.0 °F -23.0 °F -18.4 °F 50% 30.56 in 10.0 mi North 12.7 mph 23.0 mph N/A   Overcast
9:35 AM -4.0 °F -27.0 °F -18.4 °F 50% 30.54 in 10.0 mi North 19.6 mph 25.3 mph N/A   Overcast
9:55 AM -4.0 °F -26.4 °F -18.4 °F 50% 30.54 in 10.0 mi North 18.4 mph 25.3 mph N/A   Overcast
10:15 AM -2.2 °F -24.1 °F -18.4 °F 46% 30.54 in 10.0 mi NNE 18.4 mph 23.0 mph N/A   Overcast
10:35 AM -2.2 °F -22.9 °F -16.6 °F 50% 30.55 in 10.0 mi NNE 16.1 mph 23.0 mph N/A   Overcast
10:55 AM -2.2 °F -19.9 °F -16.6 °F 50% 30.55 in 10.0 mi North 11.5 mph 21.9 mph N/A   Overcast
11:15 AM -2.2 °F -21.5 °F -16.6 °F 50% 30.56 in 10.0 mi North 13.8 mph 23.0 mph N/A   Overcast
11:35 AM -0.4 °F -19.9 °F -14.8 °F 51% 30.53 in 10.0 mi North 15.0 mph 20.7 mph N/A   Overcast
11:55 AM -0.4 °F -19.2 °F -14.8 °F 51% 30.52 in 10.0 mi North 13.8 mph 25.3 mph N/A   Overcast
12:15 PM -0.4 °F -17.6 °F -14.8 °F 51% 30.54 in 10.0 mi North 11.5 mph 19.6 mph N/A   Overcast
12:35 PM -0.4 °F -17.6 °F -13.0 °F 55% 30.55 in 10.0 mi North 11.5 mph 19.6 mph N/A   Mostly Cloudy
12:55 PM 1.4 °F -17.6 °F -11.2 °F 56% 30.54 in 10.0 mi North 15.0 mph 20.7 mph N/A   Partly Cloudy
1:15 PM 1.4 °F -16.1 °F -11.2 °F 56% 30.52 in 10.0 mi NNE 12.7 mph 23.0 mph N/A   Clear
1:35 PM 1.4 °F -16.9 °F -11.2 °F 56% 30.50 in 10.0 mi North 13.8 mph 25.3 mph N/A   Clear
1:55 PM 3.2 °F -15.3 °F -11.2 °F 51% 30.50 in 10.0 mi North 15.0 mph 19.6 mph N/A   Clear
2:15 PM 3.2 °F -17.6 °F -11.2 °F 51% 30.50 in 10.0 mi NNE 19.6 mph 23.0 mph N/A   Clear
2:35 PM 3.2 °F -14.6 °F -9.4 °F 56% 30.48 in 10.0 mi NNE 13.8 mph 23.0 mph N/A   Clear
2:55 PM 3.2 °F -17.1 °F -11.2 °F 51% 30.48 in 10.0 mi North 18.4 mph 24.2 mph N/A   Clear
3:15 PM 3.2 °F -16.5 °F -9.4 °F 56% 30.49 in 10.0 mi NNE 17.3 mph 20.7 mph N/A   Clear
3:35 PM 3.2 °F -16.5 °F -11.2 °F 51% 30.48 in 10.0 mi North 17.3 mph 21.9 mph N/A   Clear
3:55 PM 3.2 °F -15.3 °F -11.2 °F 51% 30.48 in 10.0 mi North 15.0 mph 21.9 mph N/A   Clear
4:15 PM 3.2 °F -17.1 °F -9.4 °F 56% 30.46 in 10.0 mi NNE 18.4 mph 23.0 mph N/A   Clear
4:35 PM 1.4 °F -18.2 °F -11.2 °F 56% 30.46 in 10.0 mi North 16.1 mph - N/A   Clear
4:55 PM 1.4 °F -18.2 °F -11.2 °F 56% 30.46 in 10.0 mi NNE 16.1 mph 20.7 mph N/A   Clear
5:15 PM 1.4 °F -18.2 °F -11.2 °F 56% 30.46 in 10.0 mi North 16.1 mph - N/A   Clear
5:35 PM 1.4 °F -17.6 °F - N/A% 30.47 in 10.0 mi NNE 15.0 mph - N/A   Clear
5:55 PM 1.4 °F -18.2 °F -11.2 °F 56% 30.47 in 10.0 mi NNE 16.1 mph - N/A   Clear
6:15 PM 1.4 °F -16.9 °F -13.0 °F 51% 30.47 in 10.0 mi NNE 13.8 mph - N/A   Clear
6:35 PM -0.4 °F -19.2 °F -13.0 °F 55% 30.48 in 10.0 mi NNE 13.8 mph - N/A   Clear
6:55 PM -0.4 °F -17.6 °F -13.0 °F 55% 30.49 in 10.0 mi NNE 11.5 mph - N/A   Clear
7:15 PM -0.4 °F -16.7 °F -13.0 °F 55% 30.49 in 10.0 mi NNE 10.4 mph - N/A   Clear
7:35 PM -0.4 °F -15.7 °F -13.0 °F 55% 30.50 in 10.0 mi NNE 9.2 mph - N/A   Clear
7:55 PM -0.4 °F -17.6 °F -13.0 °F 55% 30.50 in 10.0 mi NNE 11.5 mph - N/A   Clear
8:15 PM -0.4 °F -14.7 °F -13.0 °F 55% 30.49 in 10.0 mi NNE 8.1 mph - N/A   Clear
8:35 PM -0.4 °F -15.7 °F -13.0 °F 55% 30.49 in 10.0 mi NNE 9.2 mph - N/A   Clear
8:55 PM -0.4 °F -15.7 °F -13.0 °F 55% 30.50 in 10.0 mi NNE 9.2 mph - N/A   Clear
9:15 PM -0.4 °F -12.0 °F -13.0 °F 55% 30.51 in 10.0 mi NNE 5.8 mph - N/A   Clear
9:35 PM -2.2 °F -14.2 °F -13.0 °F 60% 30.51 in 10.0 mi NE 5.8 mph - N/A   Clear
9:55 PM -2.2 °F -14.2 °F -13.0 °F 60% 30.52 in 10.0 mi NNE 5.8 mph - N/A   Clear
10:15 PM -2.2 °F -12.5 °F -13.0 °F 60% 30.54 in 10.0 mi NNE 4.6 mph - N/A   Clear
10:35 PM -4.0 °F -16.3 °F -13.0 °F 65% 30.54 in 10.0 mi North 5.8 mph - N/A   Clear
10:55 PM -4.0 °F -17.8 °F -13.0 °F 65% 30.54 in 10.0 mi North 6.9 mph - N/A   Clear
11:55 PM -4.0 °F -12.4 °F -13.0 °F 65% 30.53 in 10.0 mi NNW 3.5 mph - N/A   Clear